Year,Month,Day,Hour,Minute,Value (Times are PST for windgust in km/hr)
2017,11,26,00,00,17.70
2017,11,26,00,01,9.60
2017,11,26,00,02,20.90
2017,11,26,00,03,24.20
2017,11,26,00,04,16.10
2017,11,26,00,05,9.60
2017,11,26,00,06,16.10
2017,11,26,00,07,12.90
2017,11,26,00,08,9.60
2017,11,26,00,09,40.20
2017,11,26,00,10,24.20
2017,11,26,00,11,11.30
2017,11,26,00,12,24.20
2017,11,26,00,13,14.50
2017,11,26,00,14,20.90
2017,11,26,00,15,17.70
2017,11,26,00,16,14.50
2017,11,26,00,17,20.90
2017,11,26,00,18,24.20
2017,11,26,00,19,29.00
2017,11,26,00,20,19.30
2017,11,26,00,21,22.50
2017,11,26,00,22,20.90
2017,11,26,00,23,20.90
2017,11,26,00,24,30.60
2017,11,26,00,25,24.20
2017,11,26,00,26,27.40
2017,11,26,00,27,20.90
2017,11,26,00,28,17.70
2017,11,26,00,29,14.50
2017,11,26,00,30,20.90
2017,11,26,00,31,37.00
2017,11,26,00,32,32.20
2017,11,26,00,33,33.80
2017,11,26,00,34,25.70
2017,11,26,00,35,33.80
2017,11,26,00,36,19.30
2017,11,26,00,37,22.50
2017,11,26,00,38,22.50
2017,11,26,00,39,20.90
2017,11,26,00,40,48.30
2017,11,26,00,41,37.00
2017,11,26,00,42,43.50
2017,11,26,00,43,41.80
2017,11,26,00,44,30.60
2017,11,26,00,45,37.00
2017,11,26,00,46,25.70
2017,11,26,00,47,35.40
2017,11,26,00,48,24.20
2017,11,26,00,49,22.50
2017,11,26,00,50,19.30
2017,11,26,00,51,27.40
2017,11,26,00,52,40.20
2017,11,26,00,53,37.00
2017,11,26,00,54,30.60
2017,11,26,00,55,46.70
2017,11,26,00,56,32.20
2017,11,26,00,57,33.80
2017,11,26,00,58,33.80
2017,11,26,00,59,32.20
2017,11,26,01,00,27.40
2017,11,26,01,01,29.00
2017,11,26,01,02,35.40
2017,11,26,01,03,27.40
2017,11,26,01,04,38.60
2017,11,26,01,08,40.20
2017,11,26,01,09,20.90
2017,11,26,01,10,16.10
2017,11,26,01,11,20.90
2017,11,26,01,12,14.50
2017,11,26,01,13,22.50
2017,11,26,01,14,22.50
2017,11,26,01,15,22.50
2017,11,26,01,16,30.60
2017,11,26,01,17,32.20
2017,11,26,01,18,29.00
2017,11,26,01,19,14.50
2017,11,26,01,20,46.70
2017,11,26,01,21,38.60
2017,11,26,01,22,30.60
2017,11,26,01,23,24.20
2017,11,26,01,24,22.50
2017,11,26,01,25,19.30
2017,11,26,01,26,35.40
2017,11,26,01,27,43.50
2017,11,26,01,28,25.70
2017,11,26,01,29,29.00
2017,11,26,01,30,27.40
2017,11,26,01,31,48.30
2017,11,26,01,32,35.40
2017,11,26,01,33,30.60
2017,11,26,01,34,33.80
2017,11,26,01,35,33.80
2017,11,26,01,36,29.00
2017,11,26,01,37,27.40
2017,11,26,01,38,24.20
2017,11,26,01,39,33.80
2017,11,26,01,40,45.10
2017,11,26,01,41,27.40
2017,11,26,01,42,20.90
2017,11,26,01,43,29.00
2017,11,26,01,44,29.00
2017,11,26,01,45,22.50
2017,11,26,01,46,19.30
2017,11,26,01,47,51.50
2017,11,26,01,48,32.20
2017,11,26,01,49,40.20
2017,11,26,01,50,38.60
2017,11,26,01,51,35.40
2017,11,26,01,52,20.90
2017,11,26,01,53,24.20
2017,11,26,01,54,24.20
2017,11,26,01,55,20.90
2017,11,26,01,56,25.70
2017,11,26,01,57,27.40
2017,11,26,01,58,29.00
2017,11,26,01,59,45.10
2017,11,26,02,00,30.60
2017,11,26,02,01,25.70
2017,11,26,02,02,27.40
2017,11,26,02,03,32.20
2017,11,26,02,04,22.50
2017,11,26,02,05,33.80
2017,11,26,02,06,33.80
2017,11,26,02,07,29.00
2017,11,26,02,08,29.00
2017,11,26,02,09,24.20
2017,11,26,02,10,25.70
2017,11,26,02,11,45.10
2017,11,26,02,12,35.40
2017,11,26,02,13,38.60
2017,11,26,02,14,30.60
2017,11,26,02,15,41.80
2017,11,26,02,16,33.80
2017,11,26,02,17,29.00
2017,11,26,02,18,22.50
2017,11,26,02,19,25.70
2017,11,26,02,20,37.00
2017,11,26,02,21,33.80
2017,11,26,02,22,30.60
2017,11,26,02,23,49.90
2017,11,26,02,24,40.20
2017,11,26,02,25,24.20
2017,11,26,02,26,24.20
2017,11,26,02,27,48.30
2017,11,26,02,28,38.60
2017,11,26,02,29,48.30
2017,11,26,02,30,43.50
2017,11,26,02,31,40.20
2017,11,26,02,32,51.50
2017,11,26,02,33,48.30
2017,11,26,02,34,24.20
2017,11,26,02,35,67.60
2017,11,26,02,36,46.70
2017,11,26,02,37,54.70
2017,11,26,02,38,43.50
2017,11,26,02,39,48.30
2017,11,26,02,40,37.00
2017,11,26,02,41,38.60
2017,11,26,02,42,38.60
2017,11,26,02,43,32.20
2017,11,26,02,44,49.90
2017,11,26,02,45,43.50
2017,11,26,02,46,33.80
2017,11,26,02,47,43.50
2017,11,26,02,48,40.20
2017,11,26,02,49,32.20
2017,11,26,02,50,40.20
2017,11,26,02,51,49.90
2017,11,26,02,52,33.80
2017,11,26,02,53,27.40
2017,11,26,02,54,32.20
2017,11,26,02,55,25.70
2017,11,26,02,56,29.00
2017,11,26,02,57,24.20
2017,11,26,02,58,30.60
2017,11,26,02,59,22.50
2017,11,26,03,00,27.40
2017,11,26,03,01,24.20
2017,11,26,03,02,27.40
2017,11,26,03,03,22.50
2017,11,26,03,04,19.30
2017,11,26,03,05,17.70
2017,11,26,03,06,20.90
2017,11,26,03,07,17.70
2017,11,26,03,08,19.30
2017,11,26,03,09,14.50
2017,11,26,03,10,22.50
2017,11,26,03,11,20.90
2017,11,26,03,12,17.70
2017,11,26,03,13,17.70
2017,11,26,03,14,12.90
2017,11,26,03,15,17.70
2017,11,26,03,16,17.70
2017,11,26,03,17,17.70
2017,11,26,03,18,14.50
2017,11,26,03,19,14.50
2017,11,26,03,20,12.90
2017,11,26,03,21,14.50
2017,11,26,03,22,16.10
2017,11,26,03,23,16.10
2017,11,26,03,24,14.50
2017,11,26,03,25,14.50
2017,11,26,03,26,12.90
2017,11,26,03,27,17.70
2017,11,26,03,28,19.30
2017,11,26,03,29,12.90
2017,11,26,03,30,24.20
2017,11,26,03,31,12.90
2017,11,26,03,32,19.30
2017,11,26,03,33,14.50
2017,11,26,03,34,17.70
2017,11,26,03,35,12.90
2017,11,26,03,36,14.50
2017,11,26,03,37,11.30
2017,11,26,03,38,12.90
2017,11,26,03,39,12.90
2017,11,26,03,40,9.60
2017,11,26,03,41,14.50
2017,11,26,03,42,22.50
2017,11,26,03,43,9.60
2017,11,26,03,44,16.10
2017,11,26,03,45,17.70
2017,11,26,03,46,11.30
2017,11,26,03,47,11.30
2017,11,26,03,48,12.90
2017,11,26,03,49,9.60
2017,11,26,03,50,25.70
2017,11,26,03,51,17.70
2017,11,26,03,52,14.50
2017,11,26,03,53,14.50
2017,11,26,03,54,16.10
2017,11,26,03,55,17.70
2017,11,26,03,56,20.90
2017,11,26,03,57,14.50
2017,11,26,03,58,17.70
2017,11,26,03,59,19.30
2017,11,26,04,00,16.10
2017,11,26,04,01,8.10
2017,11,26,04,02,17.70
2017,11,26,04,03,11.30
2017,11,26,04,04,17.70
2017,11,26,04,05,16.10
2017,11,26,04,06,14.50
2017,11,26,04,07,12.90
2017,11,26,04,08,14.50
2017,11,26,04,09,12.90
2017,11,26,04,10,16.10
2017,11,26,04,11,9.60
2017,11,26,04,12,6.40
2017,11,26,04,13,11.30
2017,11,26,04,14,8.10
2017,11,26,04,15,16.10
2017,11,26,04,16,12.90
2017,11,26,04,17,3.20
2017,11,26,04,18,17.70
2017,11,26,04,19,16.10
2017,11,26,04,20,12.90
2017,11,26,04,21,19.30
2017,11,26,04,22,20.90
2017,11,26,04,23,25.70
2017,11,26,04,24,19.30
2017,11,26,04,25,19.30
2017,11,26,04,26,16.10
2017,11,26,04,27,12.90
2017,11,26,04,28,9.60
2017,11,26,04,29,12.90
2017,11,26,04,30,12.90
2017,11,26,04,31,12.90
2017,11,26,04,32,11.30
2017,11,26,04,33,8.10
2017,11,26,04,34,11.30
2017,11,26,04,35,11.30
2017,11,26,04,36,9.60
2017,11,26,04,37,9.60
2017,11,26,04,38,12.90
2017,11,26,04,39,8.10
2017,11,26,04,40,12.90
2017,11,26,04,41,8.10
2017,11,26,04,42,9.60
2017,11,26,04,43,9.60
2017,11,26,04,44,11.30
2017,11,26,04,45,11.30
2017,11,26,04,46,12.90
2017,11,26,04,47,14.50
2017,11,26,04,48,12.90
2017,11,26,04,49,9.60
2017,11,26,04,50,6.40
2017,11,26,04,51,9.60
2017,11,26,04,52,11.30
2017,11,26,04,53,12.90
2017,11,26,04,54,17.70
2017,11,26,04,55,11.30
2017,11,26,04,56,12.90
2017,11,26,04,57,11.30
2017,11,26,04,58,12.90
2017,11,26,04,59,9.60
2017,11,26,05,00,8.10
2017,11,26,05,01,8.10
2017,11,26,05,02,8.10
2017,11,26,05,03,11.30
2017,11,26,05,04,11.30
2017,11,26,05,05,11.30
2017,11,26,05,06,11.30
2017,11,26,05,07,9.60
2017,11,26,05,08,12.90
2017,11,26,05,09,17.70
2017,11,26,05,10,12.90
2017,11,26,05,11,9.60
2017,11,26,05,12,16.10
2017,11,26,05,13,14.50
2017,11,26,05,14,12.90
2017,11,26,05,15,19.30
2017,11,26,05,16,14.50
2017,11,26,05,17,27.40
2017,11,26,05,18,16.10
2017,11,26,05,19,16.10
2017,11,26,05,20,14.50
2017,11,26,05,21,17.70
2017,11,26,05,22,17.70
2017,11,26,05,23,27.40
2017,11,26,05,24,25.70
2017,11,26,05,25,22.50
2017,11,26,05,26,25.70
2017,11,26,05,27,25.70
2017,11,26,05,28,30.60
2017,11,26,05,29,19.30
2017,11,26,05,30,19.30
2017,11,26,05,31,17.70
2017,11,26,05,32,17.70
2017,11,26,05,33,22.50
2017,11,26,05,34,29.00
2017,11,26,05,35,27.40
2017,11,26,05,36,25.70
2017,11,26,05,37,19.30
2017,11,26,05,38,24.20
2017,11,26,05,39,11.30
2017,11,26,05,40,16.10
2017,11,26,05,41,11.30
2017,11,26,05,42,19.30
2017,11,26,05,43,27.40
2017,11,26,05,44,20.90
2017,11,26,05,45,24.20
2017,11,26,05,46,27.40
2017,11,26,05,47,22.50
2017,11,26,05,48,17.70
2017,11,26,05,49,22.50
2017,11,26,05,50,22.50
2017,11,26,05,51,12.90
2017,11,26,05,52,11.30
2017,11,26,05,53,20.90
2017,11,26,05,54,22.50
2017,11,26,05,55,16.10
2017,11,26,05,56,16.10
2017,11,26,05,57,14.50
2017,11,26,05,58,19.30
2017,11,26,05,59,17.70
2017,11,26,06,00,24.20
2017,11,26,06,01,14.50
2017,11,26,06,02,20.90
2017,11,26,06,03,24.20
2017,11,26,06,04,22.50
2017,11,26,06,05,27.40
2017,11,26,06,06,20.90
2017,11,26,06,07,32.20
2017,11,26,06,08,11.30
2017,11,26,06,09,14.50
2017,11,26,06,10,24.20
2017,11,26,06,11,22.50
2017,11,26,06,12,8.10
2017,11,26,06,13,8.10
2017,11,26,06,14,14.50
2017,11,26,06,15,19.30
2017,11,26,06,16,16.10
2017,11,26,06,17,16.10
2017,11,26,06,18,11.30
2017,11,26,06,19,9.60
2017,11,26,06,20,6.40
2017,11,26,06,21,11.30
2017,11,26,06,22,16.10
2017,11,26,06,23,25.70
2017,11,26,06,24,14.50
2017,11,26,06,25,12.90
2017,11,26,06,26,14.50
2017,11,26,06,27,14.50
2017,11,26,06,28,19.30
2017,11,26,06,29,11.30
2017,11,26,06,30,12.90
2017,11,26,06,31,12.90
2017,11,26,06,32,14.50
2017,11,26,06,33,11.30
2017,11,26,06,34,16.10
2017,11,26,06,35,11.30
2017,11,26,06,36,17.70
2017,11,26,06,37,17.70
2017,11,26,06,38,17.70
2017,11,26,06,39,16.10
2017,11,26,06,40,16.10
2017,11,26,06,41,12.90
2017,11,26,06,42,16.10
2017,11,26,06,43,9.60
2017,11,26,06,44,14.50
2017,11,26,06,45,14.50
2017,11,26,06,46,12.90
2017,11,26,06,47,11.30
2017,11,26,06,48,16.10
2017,11,26,06,49,19.30
2017,11,26,06,50,12.90
2017,11,26,06,51,11.30
2017,11,26,06,52,16.10
2017,11,26,06,53,9.60
2017,11,26,06,54,11.30
2017,11,26,06,55,11.30
2017,11,26,06,56,17.70
2017,11,26,06,57,14.50
2017,11,26,06,58,11.30
2017,11,26,06,59,16.10
2017,11,26,07,00,16.10
2017,11,26,07,01,17.70
2017,11,26,07,02,12.90
2017,11,26,07,03,14.50
2017,11,26,07,04,12.90
2017,11,26,07,05,12.90
2017,11,26,07,06,14.50
2017,11,26,07,07,16.10
2017,11,26,07,08,9.60
2017,11,26,07,09,12.90
2017,11,26,07,10,11.30
2017,11,26,07,11,9.60
2017,11,26,07,12,12.90
2017,11,26,07,13,19.30
2017,11,26,07,14,20.90
2017,11,26,07,15,12.90
2017,11,26,07,16,19.30
2017,11,26,07,17,14.50
2017,11,26,07,18,8.10
2017,11,26,07,19,6.40
2017,11,26,07,20,8.10
2017,11,26,07,21,9.60
2017,11,26,07,22,14.50
2017,11,26,07,23,9.60
2017,11,26,07,24,12.90
2017,11,26,07,25,11.30
2017,11,26,07,26,6.40
2017,11,26,07,27,9.60
2017,11,26,07,28,8.10
2017,11,26,07,29,14.50
2017,11,26,07,30,16.10
2017,11,26,07,31,11.30
2017,11,26,07,32,12.90
2017,11,26,07,33,14.50
2017,11,26,07,34,8.10
2017,11,26,07,35,8.10
2017,11,26,07,36,6.40
2017,11,26,07,37,11.30
2017,11,26,07,38,16.10
2017,11,26,07,39,9.60
2017,11,26,07,40,4.80
2017,11,26,07,41,3.20
2017,11,26,07,42,4.80
2017,11,26,07,43,3.20
2017,11,26,07,44,9.60
2017,11,26,07,45,1.60
2017,11,26,07,47,4.80
2017,11,26,07,48,6.40
2017,11,26,07,52,1.60
2017,11,26,07,55,6.40
2017,11,26,07,56,4.80
2017,11,26,07,57,1.60
2017,11,26,08,03,1.60
2017,11,26,08,04,3.20
2017,11,26,08,05,3.20
2017,11,26,08,06,1.60
2017,11,26,08,07,1.60
2017,11,26,08,08,3.20
2017,11,26,08,09,11.30
2017,11,26,08,10,11.30
2017,11,26,08,11,6.40
2017,11,26,08,12,6.40
2017,11,26,08,13,8.10
2017,11,26,08,14,8.10
2017,11,26,08,15,9.60
2017,11,26,08,16,6.40
2017,11,26,08,17,3.20
2017,11,26,08,19,3.20
2017,11,26,08,20,6.40
2017,11,26,08,21,8.10
2017,11,26,08,22,9.60
2017,11,26,08,23,9.60
2017,11,26,08,24,8.10
2017,11,26,08,25,8.10
2017,11,26,08,26,8.10
2017,11,26,08,27,12.90
2017,11,26,08,28,9.60
2017,11,26,08,29,9.60
2017,11,26,08,30,22.50
2017,11,26,08,31,17.70
2017,11,26,08,32,6.40
2017,11,26,08,33,8.10
2017,11,26,08,34,4.80
2017,11,26,08,35,14.50
2017,11,26,08,36,12.90
2017,11,26,08,37,11.30
2017,11,26,08,38,11.30
2017,11,26,08,39,11.30
2017,11,26,08,40,9.60
2017,11,26,08,41,11.30
2017,11,26,08,42,11.30
2017,11,26,08,43,16.10
2017,11,26,08,44,11.30
2017,11,26,08,45,9.60
2017,11,26,08,46,11.30
2017,11,26,08,47,11.30
2017,11,26,08,48,11.30
2017,11,26,08,49,12.90
2017,11,26,08,50,14.50
2017,11,26,08,51,8.10
2017,11,26,08,52,3.20
2017,11,26,08,53,11.30
2017,11,26,08,54,9.60
2017,11,26,08,55,12.90
2017,11,26,08,56,6.40
2017,11,26,08,57,8.10
2017,11,26,08,58,11.30
2017,11,26,08,59,6.40
2017,11,26,09,00,8.10
2017,11,26,09,01,9.60
2017,11,26,09,02,11.30
2017,11,26,09,03,12.90
2017,11,26,09,04,6.40
2017,11,26,09,05,9.60
2017,11,26,09,06,11.30
2017,11,26,09,07,11.30
2017,11,26,09,08,11.30
2017,11,26,09,09,9.60
2017,11,26,09,10,6.40
2017,11,26,09,11,12.90
2017,11,26,09,12,11.30
2017,11,26,09,13,9.60
2017,11,26,09,14,3.20
2017,11,26,09,15,11.30
2017,11,26,09,16,9.60
2017,11,26,09,17,11.30
2017,11,26,09,18,14.50
2017,11,26,09,19,3.20
2017,11,26,09,20,14.50
2017,11,26,09,21,11.30
2017,11,26,09,22,8.10
2017,11,26,09,23,11.30
2017,11,26,09,24,6.40
2017,11,26,09,25,16.10
2017,11,26,09,26,11.30
2017,11,26,09,27,9.60
2017,11,26,09,28,9.60
2017,11,26,09,29,6.40
2017,11,26,09,30,6.40
2017,11,26,09,31,9.60
2017,11,26,09,32,6.40
2017,11,26,09,33,11.30
2017,11,26,09,34,11.30
2017,11,26,09,35,11.30
2017,11,26,09,36,6.40
2017,11,26,09,37,9.60
2017,11,26,09,38,8.10
2017,11,26,09,39,12.90
2017,11,26,09,40,6.40
2017,11,26,09,41,8.10
2017,11,26,09,42,6.40
2017,11,26,09,43,12.90
2017,11,26,09,44,9.60
2017,11,26,09,45,8.10
2017,11,26,09,46,8.10
2017,11,26,09,47,9.60
2017,11,26,09,48,8.10
2017,11,26,09,49,11.30
2017,11,26,09,50,12.90
2017,11,26,09,51,8.10
2017,11,26,09,52,8.10
2017,11,26,09,53,9.60
2017,11,26,09,54,6.40
2017,11,26,09,55,4.80
2017,11,26,09,56,4.80
2017,11,26,09,57,6.40
2017,11,26,09,58,4.80
2017,11,26,09,59,1.60
2017,11,26,10,00,4.80
2017,11,26,10,01,1.60
2017,11,26,10,03,8.10
2017,11,26,10,04,4.80
2017,11,26,10,05,11.30
2017,11,26,10,06,8.10
2017,11,26,10,07,9.60
2017,11,26,10,08,9.60
2017,11,26,10,09,4.80
2017,11,26,10,10,4.80
2017,11,26,10,11,6.40
2017,11,26,10,12,9.60
2017,11,26,10,13,11.30
2017,11,26,10,14,4.80
2017,11,26,10,15,8.10
2017,11,26,10,16,3.20
2017,11,26,10,17,3.20
2017,11,26,10,18,8.10
2017,11,26,10,19,6.40
2017,11,26,10,20,8.10
2017,11,26,10,21,6.40
2017,11,26,10,22,16.10
2017,11,26,10,23,8.10
2017,11,26,10,24,9.60
2017,11,26,10,25,16.10
2017,11,26,10,26,11.30
2017,11,26,10,27,3.20
2017,11,26,10,28,17.70
2017,11,26,10,29,25.70
2017,11,26,10,30,16.10
2017,11,26,10,31,9.60
2017,11,26,10,32,12.90
2017,11,26,10,33,11.30
2017,11,26,10,34,9.60
2017,11,26,10,35,4.80
2017,11,26,10,36,4.80
2017,11,26,10,37,4.80
2017,11,26,10,38,4.80
2017,11,26,10,39,6.40
2017,11,26,10,40,6.40
2017,11,26,10,41,3.20
2017,11,26,10,42,9.60
2017,11,26,10,43,9.60
2017,11,26,10,44,1.60
2017,11,26,10,52,1.60
2017,11,26,10,53,1.60
2017,11,26,10,54,4.80
2017,11,26,10,55,1.60
2017,11,26,10,56,1.60
2017,11,26,10,57,1.60
2017,11,26,10,58,1.60
2017,11,26,10,59,3.20
2017,11,26,11,01,3.20
2017,11,26,11,11,1.60
2017,11,26,11,12,9.60
2017,11,26,11,13,8.10
2017,11,26,11,14,8.10
2017,11,26,11,15,9.60
2017,11,26,11,16,14.50
2017,11,26,11,17,11.30
2017,11,26,11,18,11.30
2017,11,26,11,19,9.60
2017,11,26,11,20,11.30
2017,11,26,11,21,11.30
2017,11,26,11,22,12.90
2017,11,26,11,23,17.70
2017,11,26,11,24,17.70
2017,11,26,11,25,22.50
2017,11,26,11,26,12.90
2017,11,26,11,27,22.50
2017,11,26,11,28,27.40
2017,11,26,11,29,24.20
2017,11,26,11,30,16.10
2017,11,26,11,31,32.20
2017,11,26,11,32,30.60
2017,11,26,11,33,30.60
2017,11,26,11,34,32.20
2017,11,26,11,35,22.50
2017,11,26,11,36,16.10
2017,11,26,11,37,24.20
2017,11,26,11,38,29.00
2017,11,26,11,39,17.70
2017,11,26,11,40,27.40
2017,11,26,11,41,22.50
2017,11,26,11,42,24.20
2017,11,26,11,43,16.10
2017,11,26,11,44,24.20
2017,11,26,11,45,17.70
2017,11,26,11,46,17.70
2017,11,26,11,47,19.30
2017,11,26,11,48,16.10
2017,11,26,11,49,16.10
2017,11,26,11,50,12.90
2017,11,26,11,51,17.70
2017,11,26,11,52,20.90
2017,11,26,11,53,22.50
2017,11,26,11,54,20.90
2017,11,26,11,55,20.90
2017,11,26,11,56,16.10
2017,11,26,11,57,14.50
2017,11,26,11,58,11.30
2017,11,26,11,59,14.50
2017,11,26,12,00,17.70
2017,11,26,12,01,9.60
2017,11,26,12,02,6.40
2017,11,26,12,03,6.40
2017,11,26,12,04,6.40
2017,11,26,12,05,11.30
2017,11,26,12,06,8.10
2017,11,26,12,07,6.40
2017,11,26,12,08,19.30
2017,11,26,12,09,25.70
2017,11,26,12,10,24.20
2017,11,26,12,11,17.70
2017,11,26,12,12,11.30
2017,11,26,12,13,19.30
2017,11,26,12,14,12.90
2017,11,26,12,15,14.50
2017,11,26,12,16,9.60
2017,11,26,12,17,9.60
2017,11,26,12,18,9.60
2017,11,26,12,19,8.10
2017,11,26,12,20,6.40
2017,11,26,12,21,4.80
2017,11,26,12,22,12.90
2017,11,26,12,23,14.50
2017,11,26,12,24,12.90
2017,11,26,12,25,12.90
2017,11,26,12,26,11.30
2017,11,26,12,27,12.90
2017,11,26,12,28,9.60
2017,11,26,12,29,12.90
2017,11,26,12,30,12.90
2017,11,26,12,31,12.90
2017,11,26,12,32,8.10
2017,11,26,12,33,6.40
2017,11,26,12,34,8.10
2017,11,26,12,35,14.50
2017,11,26,12,36,14.50
2017,11,26,12,37,12.90
2017,11,26,12,38,16.10
2017,11,26,12,39,16.10
2017,11,26,12,40,9.60
2017,11,26,12,41,11.30
2017,11,26,12,42,17.70
2017,11,26,12,43,24.20
2017,11,26,12,44,11.30
2017,11,26,12,45,11.30
2017,11,26,12,46,14.50
2017,11,26,12,47,16.10
2017,11,26,12,48,16.10
2017,11,26,12,49,16.10
2017,11,26,12,50,11.30
2017,11,26,12,51,17.70
2017,11,26,12,52,12.90
2017,11,26,12,53,17.70
2017,11,26,12,54,20.90
2017,11,26,12,55,16.10
2017,11,26,12,56,16.10
2017,11,26,12,57,22.50
2017,11,26,12,58,17.70
2017,11,26,12,59,24.20
2017,11,26,13,00,17.70
2017,11,26,13,01,14.50
2017,11,26,13,02,12.90
2017,11,26,13,03,17.70
2017,11,26,13,04,16.10
2017,11,26,13,05,17.70
2017,11,26,13,06,14.50
2017,11,26,13,07,22.50
2017,11,26,13,08,16.10
2017,11,26,13,09,16.10
2017,11,26,13,10,12.90
2017,11,26,13,11,20.90
2017,11,26,13,12,17.70
2017,11,26,13,13,30.60
2017,11,26,13,14,17.70
2017,11,26,13,15,24.20
2017,11,26,13,16,8.10
2017,11,26,13,17,9.60
2017,11,26,13,18,20.90
2017,11,26,13,19,17.70
2017,11,26,13,20,19.30
2017,11,26,13,21,22.50
2017,11,26,13,22,19.30
2017,11,26,13,23,25.70
2017,11,26,13,24,14.50
2017,11,26,13,25,14.50
2017,11,26,13,26,12.90
2017,11,26,13,27,17.70
2017,11,26,13,28,14.50
2017,11,26,13,29,24.20
2017,11,26,13,30,20.90
2017,11,26,13,31,19.30
2017,11,26,13,32,25.70
2017,11,26,13,33,19.30
2017,11,26,13,34,14.50
2017,11,26,13,35,16.10
2017,11,26,13,36,14.50
2017,11,26,13,37,11.30
2017,11,26,13,38,9.60
2017,11,26,13,39,22.50
2017,11,26,13,40,16.10
2017,11,26,13,41,14.50
2017,11,26,13,42,17.70
2017,11,26,13,43,25.70
2017,11,26,13,44,17.70
2017,11,26,13,45,20.90
2017,11,26,13,46,19.30
2017,11,26,13,47,29.00
2017,11,26,13,48,30.60
2017,11,26,13,49,25.70
2017,11,26,13,50,25.70
2017,11,26,13,51,32.20
2017,11,26,13,52,27.40
2017,11,26,13,53,35.40
2017,11,26,13,54,32.20
2017,11,26,13,55,16.10
2017,11,26,13,56,22.50
2017,11,26,13,57,33.80
2017,11,26,13,58,32.20
2017,11,26,13,59,29.00
2017,11,26,14,00,24.20
2017,11,26,14,01,27.40
2017,11,26,14,02,25.70
2017,11,26,14,03,16.10
2017,11,26,14,04,30.60
2017,11,26,14,05,25.70
2017,11,26,14,06,24.20
2017,11,26,14,07,27.40
2017,11,26,14,08,24.20
2017,11,26,14,09,16.10
2017,11,26,14,10,17.70
2017,11,26,14,11,19.30
2017,11,26,14,12,19.30
2017,11,26,14,13,27.40
2017,11,26,14,14,25.70
2017,11,26,14,15,24.20
2017,11,26,14,16,14.50
2017,11,26,14,17,20.90
2017,11,26,14,18,20.90
2017,11,26,14,19,16.10
2017,11,26,14,20,19.30
2017,11,26,14,21,16.10
2017,11,26,14,22,14.50
2017,11,26,14,23,27.40
2017,11,26,14,24,16.10
2017,11,26,14,25,16.10
2017,11,26,14,26,22.50
2017,11,26,14,27,20.90
2017,11,26,14,28,20.90
2017,11,26,14,29,16.10
2017,11,26,14,30,17.70
2017,11,26,14,31,17.70
2017,11,26,14,32,17.70
2017,11,26,14,33,20.90
2017,11,26,14,34,19.30
2017,11,26,14,35,24.20
2017,11,26,14,36,16.10
2017,11,26,14,37,24.20
2017,11,26,14,38,24.20
2017,11,26,14,39,19.30
2017,11,26,14,40,16.10
2017,11,26,14,41,19.30
2017,11,26,14,42,20.90
2017,11,26,14,43,19.30
2017,11,26,14,44,17.70
2017,11,26,14,45,19.30
2017,11,26,14,46,12.90
2017,11,26,14,47,16.10
2017,11,26,14,48,14.50
2017,11,26,14,49,29.00
2017,11,26,14,50,14.50
2017,11,26,14,51,22.50
2017,11,26,14,52,20.90
2017,11,26,14,53,16.10
2017,11,26,14,54,24.20
2017,11,26,14,55,24.20
2017,11,26,14,56,25.70
2017,11,26,14,57,24.20
2017,11,26,14,58,30.60
2017,11,26,14,59,16.10
2017,11,26,15,00,24.20
2017,11,26,15,01,33.80
2017,11,26,15,02,17.70
2017,11,26,15,03,22.50
2017,11,26,15,04,14.50
2017,11,26,15,05,11.30
2017,11,26,15,06,17.70
2017,11,26,15,07,20.90
2017,11,26,15,08,22.50
2017,11,26,15,09,27.40
2017,11,26,15,10,24.20
2017,11,26,15,11,19.30
2017,11,26,15,12,22.50
2017,11,26,15,13,30.60
2017,11,26,15,14,27.40
2017,11,26,15,15,24.20
2017,11,26,15,16,17.70
2017,11,26,15,17,19.30
2017,11,26,15,18,16.10
2017,11,26,15,19,17.70
2017,11,26,15,20,14.50
2017,11,26,15,21,14.50
2017,11,26,15,22,17.70
2017,11,26,15,23,9.60
2017,11,26,15,24,17.70
2017,11,26,15,25,19.30
2017,11,26,15,26,12.90
2017,11,26,15,27,9.60
2017,11,26,15,28,11.30
2017,11,26,15,29,12.90
2017,11,26,15,30,14.50
2017,11,26,15,31,12.90
2017,11,26,15,32,8.10
2017,11,26,15,33,14.50
2017,11,26,15,34,25.70
2017,11,26,15,35,19.30
2017,11,26,15,36,16.10
2017,11,26,15,37,22.50
2017,11,26,15,38,19.30
2017,11,26,15,39,30.60
2017,11,26,15,40,32.20
2017,11,26,15,41,17.70
2017,11,26,15,42,32.20
2017,11,26,15,43,33.80
2017,11,26,15,44,20.90
2017,11,26,15,45,24.20
2017,11,26,15,46,27.40
2017,11,26,15,47,19.30
2017,11,26,15,48,22.50
2017,11,26,15,49,14.50
2017,11,26,15,50,14.50
2017,11,26,15,51,16.10
2017,11,26,15,52,19.30
2017,11,26,15,53,11.30
2017,11,26,15,54,9.60
2017,11,26,15,55,9.60
2017,11,26,15,56,9.60
2017,11,26,15,57,9.60
2017,11,26,15,58,9.60
2017,11,26,15,59,12.90
2017,11,26,16,00,22.50
2017,11,26,16,01,16.10
2017,11,26,16,02,24.20
2017,11,26,16,03,20.90
2017,11,26,16,04,12.90
2017,11,26,16,05,11.30
2017,11,26,16,06,17.70
2017,11,26,16,07,16.10
2017,11,26,16,08,14.50
2017,11,26,16,09,11.30
2017,11,26,16,10,22.50
2017,11,26,16,11,17.70
2017,11,26,16,12,11.30
2017,11,26,16,13,16.10
2017,11,26,16,14,22.50
2017,11,26,16,15,16.10
2017,11,26,16,16,17.70
2017,11,26,16,17,22.50
2017,11,26,16,18,19.30
2017,11,26,16,19,12.90
2017,11,26,16,20,11.30
2017,11,26,16,21,11.30
2017,11,26,16,22,19.30
2017,11,26,16,23,20.90
2017,11,26,16,24,16.10
2017,11,26,16,25,16.10
2017,11,26,16,26,16.10
2017,11,26,16,27,12.90
2017,11,26,16,28,19.30
2017,11,26,16,29,17.70
2017,11,26,16,30,19.30
2017,11,26,16,31,16.10
2017,11,26,16,32,16.10
2017,11,26,16,33,16.10
2017,11,26,16,34,17.70
2017,11,26,16,35,9.60
2017,11,26,16,36,12.90
2017,11,26,16,37,14.50
2017,11,26,16,38,11.30
2017,11,26,16,39,14.50
2017,11,26,16,40,12.90
2017,11,26,16,41,17.70
2017,11,26,16,42,16.10
2017,11,26,16,43,8.10
2017,11,26,16,44,16.10
2017,11,26,16,45,14.50
2017,11,26,16,46,12.90
2017,11,26,16,47,8.10
2017,11,26,16,48,8.10
2017,11,26,16,49,8.10
2017,11,26,16,50,8.10
2017,11,26,16,51,4.80
2017,11,26,16,52,1.60
2017,11,26,16,53,12.90
2017,11,26,16,54,14.50
2017,11,26,16,55,12.90
2017,11,26,16,56,17.70
2017,11,26,16,57,14.50
2017,11,26,16,58,17.70
2017,11,26,16,59,8.10
2017,11,26,17,00,25.70
2017,11,26,17,01,14.50
2017,11,26,17,02,11.30
2017,11,26,17,03,12.90
2017,11,26,17,04,12.90
2017,11,26,17,05,12.90
2017,11,26,17,06,16.10
2017,11,26,17,07,14.50
2017,11,26,17,08,14.50
2017,11,26,17,09,8.10
2017,11,26,17,10,11.30
2017,11,26,17,11,8.10
2017,11,26,17,12,11.30
2017,11,26,17,13,6.40
2017,11,26,17,14,6.40
2017,11,26,17,15,6.40
2017,11,26,17,16,4.80
2017,11,26,17,17,11.30
2017,11,26,17,18,6.40
2017,11,26,17,19,9.60
2017,11,26,17,20,4.80
2017,11,26,17,21,17.70
2017,11,26,17,22,8.10
2017,11,26,17,23,6.40
2017,11,26,17,24,9.60
2017,11,26,17,25,22.50
2017,11,26,17,26,16.10
2017,11,26,17,27,20.90
2017,11,26,17,28,17.70
2017,11,26,17,29,9.60
2017,11,26,17,30,9.60
2017,11,26,17,31,4.80
2017,11,26,17,32,11.30
2017,11,26,17,33,17.70
2017,11,26,17,34,22.50
2017,11,26,17,35,35.40
2017,11,26,17,36,22.50
2017,11,26,17,37,37.00
2017,11,26,17,38,29.00
2017,11,26,17,39,25.70
2017,11,26,17,40,20.90
2017,11,26,17,41,11.30
2017,11,26,17,42,14.50
2017,11,26,17,43,14.50
2017,11,26,17,44,12.90
2017,11,26,17,45,12.90
2017,11,26,17,46,6.40
2017,11,26,17,47,4.80
2017,11,26,17,48,4.80
2017,11,26,17,49,4.80
2017,11,26,17,50,4.80
2017,11,26,17,51,4.80
2017,11,26,17,52,4.80
2017,11,26,17,53,3.20
2017,11,26,17,54,6.40
2017,11,26,17,55,6.40
2017,11,26,17,56,1.60
2017,11,26,17,57,1.60
2017,11,26,17,58,3.20
2017,11,26,17,59,4.80
2017,11,26,18,00,4.80
2017,11,26,18,01,16.10
2017,11,26,18,02,9.60
2017,11,26,18,03,14.50